Location: Davidson Heights
(40.5834°N, 80.2598°W)
Time: 18:32:56
(UTC+00:00)

Hubble Space Telescope - Pass Details

Date: 04 December 2020
Orbit: 536 x 539 km, 28.5° (Epoch: 15 January)

Event Time Altitude Azimuth Distance (km) Brightness Sun altitude
Rises 22:33:20 0° 217° (SW) 2,664 5.5 -7.5°
Reaches altitude 10° 22:37:40 10° 174° (S) 1,775 3.6 -8.3°
Maximum altitude 22:38:14 10° 166° (SSE) 1,760 3.5 -8.4°
Drops below altitude 10° 22:38:49 10° 158° (SSE) 1,775 3.4 -8.5°
Enters shadow 22:42:42 - 117° (ESE) 2,532 3.8 -9.2°
